Previsão horária em Abramovo

Hoje, 18 Maio, Terça-feira

Tempo Temperatura Precipitação Vento Pressão Humidade
00:00 +18°C° 0 mm 4 m/s 738 mmHg 92%
01:00 +17°C° 0 mm 3 m/s 738 mmHg 93%
02:00 +17°C° 0 mm 3 m/s 737 mmHg 93%
03:00 +17°C° 0.1 mm 3 m/s 737 mmHg 93%
04:00 +18°C° 0.1 mm 4 m/s 737 mmHg 92%
05:00 +18°C° 0.1 mm 4 m/s 737 mmHg 92%
06:00 +19°C° 0 mm 4 m/s 737 mmHg 86%
07:00 +21°C° 0 mm 4 m/s 737 mmHg 81%
08:00 +22°C° 0 mm 4 m/s 737 mmHg 76%
09:00 +23°C° 0.1 mm 5 m/s 738 mmHg 69%
10:00 +26°C° 0.1 mm 5 m/s 738 mmHg 63%
11:00 +27°C° 0.1 mm 5 m/s 738 mmHg 57%
12:00 +28°C° 0 mm 5 m/s 738 mmHg 53%
13:00 +28°C° 0 mm 5 m/s 737 mmHg 50%
14:00 +29°C° 0 mm 5 m/s 737 mmHg 46%
15:00 +28°C° 0 mm 5 m/s 737 mmHg 48%
16:00 +27°C° 0 mm 5 m/s 737 mmHg 51%
17:00 +26°C° 0 mm 5 m/s 737 mmHg 53%
18:00 +23°C° 0 mm 5 m/s 736 mmHg 58%
19:00 +22°C° 0 mm 5 m/s 736 mmHg 63%
20:00 +20°C° 0 mm 4 m/s 736 mmHg 69%
21:00 +20°C° 0 mm 4 m/s 736 mmHg 72%
22:00 +19°C° 0 mm 5 m/s 736 mmHg 76%
23:00 +19°C° 0 mm 5 m/s 736 mmHg 79%

Amanhã, 19 Maio, Quarta-feira

Tempo Temperatura Precipitação Vento Pressão Humidade
00:00 +18°C° 0 mm 4 m/s 736 mmHg 83%
01:00 +17°C° 0 mm 4 m/s 736 mmHg 88%
02:00 +16°C° 0 mm 3 m/s 736 mmHg 92%
03:00 +16°C° 0 mm 3 m/s 736 mmHg 91%
04:00 +16°C° 0 mm 3 m/s 736 mmHg 90%
05:00 +16°C° 0 mm 3 m/s 736 mmHg 89%
06:00 +17°C° 0.1 mm 4 m/s 736 mmHg 86%
07:00 +17°C° 0.1 mm 4 m/s 737 mmHg 83%
08:00 +17°C° 0.1 mm 5 m/s 737 mmHg 80%
09:00 +19°C° 0.2 mm 5 m/s 737 mmHg 74%
10:00 +20°C° 0.2 mm 5 m/s 737 mmHg 69%
11:00 +21°C° 0.2 mm 6 m/s 737 mmHg 63%
12:00 +21°C° 0.5 mm 5 m/s 737 mmHg 65%
13:00 +21°C° 0.5 mm 5 m/s 738 mmHg 66%
14:00 +21°C° 0.5 mm 5 m/s 738 mmHg 68%
15:00 +21°C° 0.2 mm 5 m/s 738 mmHg 69%
16:00 +21°C° 0.2 mm 4 m/s 738 mmHg 70%
17:00 +21°C° 0.2 mm 4 m/s 738 mmHg 72%
18:00 +19°C° 0.1 mm 3 m/s 738 mmHg 77%
19:00 +18°C° 0.1 mm 2 m/s 738 mmHg 83%
20:00 +16°C° 0.1 mm 2 m/s 738 mmHg 89%
21:00 +16°C° 0 mm 2 m/s 738 mmHg 90%
22:00 +15°C° 0 mm 2 m/s 737 mmHg 91%
23:00 +15°C° 0 mm 1 m/s 737 mmHg 92%

Depois de amanhã, 20 Maio, Quinta-feira

Tempo Temperatura Precipitação Vento Pressão Humidade
00:00 +15°C° 0 mm 1 m/s 737 mmHg 93%
01:00 +14°C° 0 mm 1 m/s 736 mmHg 94%
02:00 +14°C° 0 mm 1 m/s 736 mmHg 94%
03:00 +14°C° 0 mm 2 m/s 736 mmHg 95%
04:00 +15°C° 0 mm 2 m/s 736 mmHg 95%
05:00 +15°C° 0 mm 2 m/s 735 mmHg 95%
06:00 +16°C° 0.1 mm 3 m/s 735 mmHg 89%
07:00 +18°C° 0.1 mm 3 m/s 735 mmHg 84%
08:00 +19°C° 0.1 mm 4 m/s 735 mmHg 78%
09:00 +19°C° 0.4 mm 5 m/s 734 mmHg 76%
10:00 +19°C° 0.4 mm 5 m/s 734 mmHg 75%
11:00 +17°C° 0.4 mm 6 m/s 734 mmHg 73%
12:00 +17°C° 0.6 mm 6 m/s 734 mmHg 74%
13:00 +17°C° 0.6 mm 6 m/s 734 mmHg 74%
14:00 +17°C° 0.6 mm 7 m/s 734 mmHg 75%
15:00 +16°C° 0.3 mm 6 m/s 734 mmHg 79%
16:00 +14°C° 0.3 mm 5 m/s 733 mmHg 83%
17:00 +13°C° 0.3 mm 5 m/s 733 mmHg 87%
18:00 +12°C° 0.3 mm 5 m/s 733 mmHg 90%
19:00 +12°C° 0.3 mm 5 m/s 733 mmHg 93%
20:00 +12°C° 0.3 mm 5 m/s 733 mmHg 96%
21:00 +10°C° 0.1 mm 5 m/s 733 mmHg 96%
22:00 +10°C° 0.1 mm 5 m/s 734 mmHg 95%
23:00 +10°C° 0.1 mm 5 m/s 734 mmHg 95%

21 Maio, Sexta-feira

Tempo Temperatura Precipitação Vento Pressão Humidade
00:00 +9°C° 0.2 mm 5 m/s 735 mmHg 95%
01:00 +9°C° 0.2 mm 5 m/s 736 mmHg 94%
02:00 +8°C° 0.2 mm 5 m/s 736 mmHg 94%
03:00 +8°C° 0 mm 5 m/s 737 mmHg 93%
04:00 +8°C° 0 mm 5 m/s 738 mmHg 93%
05:00 +8°C° 0 mm 5 m/s 738 mmHg 93%
06:00 +9°C° 0 mm 5 m/s 739 mmHg 88%
07:00 +9°C° 0 mm 5 m/s 740 mmHg 84%
08:00 +10°C° 0 mm 5 m/s 740 mmHg 79%
09:00 +13°C° 0 mm 5 m/s 741 mmHg 68%
10:00 +14°C° 0 mm 5 m/s 741 mmHg 58%
11:00 +15°C° 0 mm 5 m/s 742 mmHg 47%
12:00 +17°C° 0 mm 4 m/s 742 mmHg 45%
13:00 +18°C° 0 mm 4 m/s 742 mmHg 43%
14:00 +18°C° 0 mm 4 m/s 742 mmHg 41%
15:00 +18°C° 0 mm 4 m/s 743 mmHg 45%
16:00 +18°C° 0 mm 3 m/s 743 mmHg 48%
17:00 +17°C° 0 mm 3 m/s 743 mmHg 52%
18:00 +16°C° 0 mm 3 m/s 743 mmHg 60%
19:00 +14°C° 0 mm 2 m/s 744 mmHg 67%
20:00 +12°C° 0 mm 2 m/s 744 mmHg 75%
21:00 +10°C° 0 mm 2 m/s 744 mmHg 78%
22:00 +9°C° 0 mm 2 m/s 744 mmHg 81%
23:00 +8°C° 0 mm 2 m/s 745 mmHg 84%

22 Maio, Sábado

Tempo Temperatura Precipitação Vento Pressão Humidade
00:00 +8°C° 0 mm 2 m/s 745 mmHg 85%
01:00 +7°C° 0 mm 2 m/s 745 mmHg 87%
02:00 +8°C° 0 mm 1 m/s 745 mmHg 89%
03:00 +8°C° 0 mm 1 m/s 745 mmHg 87%
04:00 +9°C° 0 mm 1 m/s 745 mmHg 85%
05:00 +9°C° 0 mm 1 m/s 746 mmHg 83%
06:00 +11°C° 0 mm 1 m/s 746 mmHg 74%
07:00 +13°C° 0 mm 1 m/s 746 mmHg 66%
08:00 +15°C° 0 mm 1 m/s 746 mmHg 57%
09:00 +16°C° 0 mm 1 m/s 746 mmHg 52%
10:00 +18°C° 0 mm 1 m/s 745 mmHg 48%
11:00 +18°C° 0 mm 2 m/s 745 mmHg 43%
12:00 +18°C° 0 mm 2 m/s 745 mmHg 42%
13:00 +19°C° 0 mm 2 m/s 745 mmHg 41%
14:00 +19°C° 0 mm 2 m/s 745 mmHg 40%
15:00 +19°C° 0 mm 2 m/s 745 mmHg 43%
16:00 +19°C° 0 mm 2 m/s 745 mmHg 46%
17:00 +19°C° 0 mm 2 m/s 745 mmHg 49%
18:00 +17°C° 0 mm 2 m/s 745 mmHg 57%
19:00 +15°C° 0 mm 2 m/s 745 mmHg 65%
20:00 +13°C° 0 mm 2 m/s 745 mmHg 73%
21:00 +12°C° 0 mm 2 m/s 745 mmHg 74%
22:00 +12°C° 0 mm 2 m/s 745 mmHg 75%
23:00 +10°C° 0 mm 2 m/s 745 mmHg 76%

23 Maio, Domingo

Tempo Temperatura Precipitação Vento Pressão Humidade
00:00 +10°C° 0 mm 2 m/s 745 mmHg 81%
01:00 +9°C° 0 mm 2 m/s 744 mmHg 86%
02:00 +9°C° 0 mm 2 m/s 744 mmHg 91%
03:00 +10°C° 0 mm 3 m/s 744 mmHg 90%
04:00 +10°C° 0 mm 3 m/s 744 mmHg 90%
05:00 +11°C° 0 mm 3 m/s 744 mmHg 89%
06:00 +12°C° 0 mm 4 m/s 743 mmHg 83%
07:00 +13°C° 0 mm 4 m/s 743 mmHg 78%
08:00 +15°C° 0 mm 4 m/s 742 mmHg 72%
09:00 +16°C° 0 mm 5 m/s 742 mmHg 69%
10:00 +16°C° 0 mm 5 m/s 741 mmHg 65%
11:00 +17°C° 0 mm 5 m/s 741 mmHg 61%
12:00 +19°C° 0 mm 5 m/s 740 mmHg 62%
13:00 +19°C° 0 mm 5 m/s 740 mmHg 64%
14:00 +19°C° 0 mm 5 m/s 739 mmHg 65%
15:00 +19°C° 0.3 mm 5 m/s 739 mmHg 70%
16:00 +17°C° 0.3 mm 5 m/s 738 mmHg 75%
17:00 +16°C° 0.3 mm 6 m/s 738 mmHg 80%
18:00 +15°C° 0.8 mm 5 m/s 739 mmHg 84%
19:00 +13°C° 0.8 mm 5 m/s 739 mmHg 88%
20:00 +12°C° 0.8 mm 4 m/s 740 mmHg 92%
21:00 +12°C° 0 mm 4 m/s 740 mmHg 93%
22:00 +11°C° 0 mm 3 m/s 741 mmHg 93%
23:00 +11°C° 0 mm 3 m/s 741 mmHg 94%
Mostrar mais

Necessitamos do seu Consentimento

A Meteoprog e os seus Fornecedores de Serviços podem armazenar e aceder a dados pessoais como cookies, identificadores do dispositivo ou outras tecnologias semelhantes existentes no seu dispositivo e processar estes dados para personalizar conteúdos e anúncios, assim como funcionalidades nas redes sociais e análise de tráfego.

  • Armazenar e/ou aceder a informações no seu dispositivo

    Os cookies, identificadores do dispositivo ou outras informações podem ser armazenados ou acedidos no seu dispositivo, para os fins acima indicados.

  • Anúncios e conteúdos personalizados, medição de anúncios e conteúdos, dados sobre o público-alvo e desenvolvimento de produtos

    Os anúncios e os conteúdos podem ser personalizados com base num perfil. Podem ser adicionados dados adicionais para uma maior personalização dos anúncios e dos conteúdos. A eficácia dos anúncios e dos conteúdos pode ser medida. Podem ser obtidas informações sobre o público que visualizou os anúncios e os conteúdos. Estes dados podem ser usados para desenvolver ou melhorar sistemas, softwares ou a experiência do utilizador.

Ao clicar em "Eu concordo”, permitirá o uso de cookies, identificadores do dispositivo e web beacons mencionados ou outras tecnologias semelhantes. As configurações do navegador do seu dispositivo podem ser alteradas.

Para certos fins, podem ser invocados interesses legítimos ao invés de consentimento. Pode ler mais informação sobre este assunto na nossa Política de Privacidade e Cookies.